[[{"header":{"parameterUnit":"m.s-1","parameterCategory":1,"la1":30.2992,"la2":30.254,"lo1":-89.0895,"lo2":-89.0443,"dy":0.0025,"dx":0.0025,"nx":19,"ny":19,"refTime":"2026-05-13T09:00:00:Z","depth":0,"parameterNumber":2,"parameterNumberName":"U-component_of_WINDS"},"data":[0,0,0,0.3234,0.3235,0.3298,0.3298,0.3362,0.3362,0,0,0,0,0,0,0,0,0,0,0,0.3203,0.3203,0.3234,0.3235,0.3298,0.3298,0.3362,0.3362,0,0,0,0,0,0,0,0,0,0,0,0.3203,0.3203,0.3203,0.3235,0.3298,0.3298,0.3361,0.332,0,0,0,0,0,0,0,0,0,0,0.3262,0.3222,0.3203,0.3203,0.3235,0.3298,0.3298,0.3319,0.3323,0.3325,0,0.3323,0,0.3343,0.3365,0.3365,0,0,0,0.3244,0.3219,0.3246,0.3203,0.3236,0.3298,0.3272,0.3321,0.3326,0.3331,0.3324,0.3327,0.3345,0.3365,0.3366,0.3347,0.3346,0,0,0.324,0.3209,0.3243,0.3249,0.3237,0.327,0.3274,0.3324,0.3316,0.3325,0.3329,0.3346,0.3366,0.3366,0.3347,0.3347,0,0,0,0.3224,0.3206,0.3233,0.3246,0.3258,0.3271,0.3276,0.3314,0.3325,0.333,0.3346,0.3366,0.3366,0.3348,0.3347,0.329,0,0,0,0.3223,0.3197,0.323,0.3212,0.3257,0.3286,0.3264,0.3321,0.3328,0.3346,0.3366,0.3367,0.3349,0.3347,0.3292,0.3267,0,0,0,0.3203,0.3194,0.3199,0.321,0.3236,0.3286,0.3301,0.3323,0.3338,0.3365,0.3367,0.3349,0.3348,0.3295,0.3272,0.3252,0,0,0,0.3174,0.3148,0.3198,0.3176,0.3235,0.325,0.3301,0.3314,0.3331,0.3366,0.3348,0.3347,0.3296,0.3274,0.3254,0.3228,0.3215,0,0,0.3124,0.3141,0.3131,0.3177,0.3175,0.3243,0.3234,0.328,0.3313,0.3334,0.3334,0.3291,0.3272,0.3252,0.3154,0.3142,0,0,0,0.3104,0.3096,0.3103,0.3117,0.3151,0.3179,0.323,0.3247,0.3267,0.3317,0.3281,0.327,0.326,0.3249,0.324,0.3233,0.3341,0.3341,0.3341,0.2987,0.303,0.3016,0.3065,0.3079,0.3132,0.3147,0.318,0.3219,0.321,0.3216,0.3151,0.3136,0.313,0.3122,0.3207,0.3207,0.3207,0.3207,0.2917,0.2912,0.2965,0.297,0.3016,0.3021,0.3072,0.31,0.3112,0.315,0.3143,0.3179,0.3116,0.3112,0.3203,0.3204,0.3204,0.3204,0.3205,0.2843,0.2848,0.287,0.2894,0.2909,0.2962,0.2971,0.3013,0.3053,0.3046,0.3056,0.3057,0.3062,0.3048,0.3048,0.3048,0.3048,0.3048,0.3047,0.2757,0.2784,0.2785,0.282,0.2834,0.2859,0.2913,0.2929,0.2958,0.2988,0.2988,0.3028,0.3103,0.3119,0.3044,0.3045,0.3045,0.3045,0.3046,0.2667,0.2694,0.2696,0.2711,0.2755,0.2767,0.2821,0.285,0.287,0.2873,0.2915,0.2964,0.2985,0.2993,0.3007,0.2907,0.2907,0.2907,0.2907,0.2603,0.2618,0.263,0.265,0.2676,0.2725,0.2726,0.2769,0.2817,0.2832,0.2854,0.2877,0.2883,0.29,0.291,0.2923,0.2804,0.2804,0.2804,0.2549,0.2569,0.2561,0.2608,0.2646,0.2678,0.2681,0.2703,0.2764,0.2801,0.2845,0.2849,0.2887,0.2897,0.2932,0.2946,0.2972,0,0]},{"header":{"parameterUnit":"m.s-1","parameterCategory":1,"la1":30.2992,"la2":30.254,"lo1":-89.0895,"lo2":-89.0443,"dy":0.0025,"dx":0.0025,"nx":19,"ny":19,"refTime":"2026-05-13T09:00:00:Z","depth":0,"parameterNumber":3,"parameterNumberName":"V-component_of_WINDS"},"data":[0,0,0,-1.7535,-1.7534,-1.7517,-1.7517,-1.7478,-1.7477,0,0,0,0,0,0,0,0,0,0,0,-1.7529,-1.7528,-1.7535,-1.7534,-1.7517,-1.7517,-1.7478,-1.7477,0,0,0,0,0,0,0,0,0,0,0,-1.7529,-1.7528,-1.7528,-1.7534,-1.7517,-1.7517,-1.7478,-1.7497,0,0,0,0,0,0,0,0,0,0,-1.7517,-1.75,-1.7528,-1.7527,-1.7534,-1.7517,-1.7517,-1.7498,-1.7496,-1.7478,0,-1.7459,0,-1.7468,-1.7473,-1.7473,0,0,0,-1.7542,-1.7502,-1.7508,-1.7527,-1.7533,-1.7517,-1.7527,-1.7497,-1.7494,-1.7475,-1.7459,-1.7458,-1.7467,-1.7473,-1.7473,-1.7348,-1.7347,0,0,-1.7543,-1.7519,-1.751,-1.7505,-1.7507,-1.7527,-1.7526,-1.7496,-1.7476,-1.7459,-1.7457,-1.7466,-1.7473,-1.7472,-1.7349,-1.7348,0,0,0,-1.754,-1.7519,-1.7527,-1.7507,-1.7505,-1.7527,-1.7525,-1.7478,-1.7482,-1.7457,-1.7466,-1.7472,-1.7472,-1.735,-1.7349,-1.7282,0,0,0,-1.7541,-1.7518,-1.7526,-1.7512,-1.7505,-1.7491,-1.7508,-1.7484,-1.7481,-1.7466,-1.7472,-1.7471,-1.7351,-1.7349,-1.7287,-1.7255,0,0,0,-1.7534,-1.7518,-1.7511,-1.7511,-1.7503,-1.7492,-1.7495,-1.7484,-1.7486,-1.7473,-1.7471,-1.7352,-1.735,-1.729,-1.7261,-1.7219,0,0,0,-1.7518,-1.7449,-1.751,-1.7436,-1.7503,-1.7451,-1.7495,-1.7457,-1.7437,-1.7472,-1.7351,-1.7349,-1.7291,-1.7264,-1.7222,-1.718,-1.716,0,0,-1.7418,-1.7436,-1.7395,-1.7449,-1.7381,-1.7455,-1.7378,-1.738,-1.7398,-1.7364,-1.7361,-1.7285,-1.7261,-1.7219,-1.7051,-1.7034,0,0,0,-1.7355,-1.7326,-1.7313,-1.7295,-1.7297,-1.7298,-1.7315,-1.7317,-1.729,-1.7376,-1.7258,-1.7244,-1.7221,-1.7202,-1.7188,-1.7171,-1.7338,-1.7339,-1.7339,-1.7179,-1.721,-1.7146,-1.7176,-1.7158,-1.718,-1.7169,-1.7175,-1.7207,-1.718,-1.717,-1.7064,-1.7041,-1.7031,-1.7013,-1.7148,-1.7148,-1.7148,-1.7148,-1.7037,-1.7002,-1.7053,-1.7009,-1.7043,-1.7006,-1.7025,-1.7051,-1.7023,-1.7072,-1.7053,-1.7107,-1.7012,-1.6998,-1.7143,-1.7144,-1.7144,-1.7145,-1.7145,-1.6927,-1.6916,-1.6922,-1.6903,-1.6885,-1.6917,-1.689,-1.692,-1.6948,-1.6929,-1.6925,-1.6926,-1.6934,-1.6925,-1.6924,-1.6924,-1.6924,-1.6923,-1.6923,-1.6812,-1.682,-1.6794,-1.6795,-1.679,-1.6788,-1.6812,-1.6808,-1.6812,-1.6837,-1.6837,-1.6875,-1.6996,-1.7028,-1.6918,-1.6919,-1.6919,-1.692,-1.692,-1.666,-1.6701,-1.666,-1.6656,-1.6662,-1.6645,-1.6685,-1.6676,-1.6677,-1.6663,-1.6707,-1.6791,-1.6811,-1.6822,-1.6848,-1.6698,-1.6698,-1.6698,-1.6698,-1.657,-1.6584,-1.6552,-1.6545,-1.654,-1.6574,-1.653,-1.655,-1.6576,-1.6579,-1.6605,-1.6642,-1.6652,-1.6667,-1.6681,-1.6707,-1.6524,-1.6523,-1.6523,-1.648,-1.6496,-1.6452,-1.6481,-1.649,-1.6497,-1.6458,-1.6447,-1.6485,-1.6517,-1.6584,-1.6591,-1.6651,-1.6668,-1.6702,-1.6724,-1.6771,0,0]}]]